User: anonymous
Location: South Tamworth Observatory
(43.8246°N, 71.3026°W)
Time: 16:01:26
(UTC-04:00)
Language:

Cosmos 2208 Rocket - Orbit

View from above orbital plane
View from above orbital plane
View from above satellite
View from above satellite

Ground track
Ground track

The orbit data is extracted from the following two-line orbital elements,

1 22081U 92053B   14205.15304335 -.00000003  00000-0  81020-5 0  6276
2 22081 074.0428 212.0894 0034883 080.0604 280.4482 14.33084392147120
Epoch (UTC): 24 July 2014 03:40:22
Eccentricity: 0.0034883
inclination: 74.0428°
perigee height: 756 km
apogee height: 806 km
right ascension of ascending node: 212.0894°
argument of perigee: 80.0604°
revolutions per day: 14.33084392
mean anomaly at epoch: 280.4482°
orbit number at epoch: 14712

The dashed part of the orbit path shows where the satellite is in the earth's shadow,  

DLR